Location: Kikino
(54.4440°N, 112.0940°W)
Time: 04:58:33
(UTC+00:00)

deb Explorer IX - All Passes

Search period start: 24 May 2024 00:00
Search period end: 03 June 2024 00:00
Orbit: 513 x 891 km, 38.7° (Epoch: 23 May)

Date Brightness Start Highest point End Pass type
(mag) Time Alt. Az. Time Alt. Az. Time Alt. Az.
24 May - 06:03:39 10° S 06:04:33 10° S 06:05:26 10° SSE visible
25 May - 05:03:33 10° S 05:04:33 11° S 05:05:32 10° SSE visible
26 May - 05:45:56 10° SSW 05:47:22 11° S 05:48:46 10° SSE visible
27 May - 04:45:17 10° SSW 04:47:14 12° S 04:49:06 10° SSE visible
28 May - 03:44:58 10° SSW 03:47:01 12° S 03:48:58 10° SSE daylight
28 May - 05:28:25 10° SSW 05:29:55 11° S 05:31:21 10° S visible
29 May - 02:45:01 10° S 02:46:43 11° SSE 02:48:21 10° SSE daylight
29 May - 04:27:20 10° SSW 04:29:39 13° S 04:31:52 10° SSE daylight
30 May - 03:26:36 10° SSW 03:29:18 14° S 03:31:51 10° SSE daylight
30 May - 05:11:07 10° SSW 05:12:10 11° SSW 05:13:12 10° S visible
31 May - 02:26:07 10° SSW 02:28:50 14° S 02:31:27 10° SE daylight
31 May - 04:09:23 10° SW 04:11:48 13° S 04:14:06 10° SSE daylight
01 Jun - 01:25:56 10° S 01:28:19 13° SSE 01:30:39 10° SE daylight
01 Jun - 03:08:18 10° SW 03:11:19 15° S 03:14:10 10° SSE daylight
02 Jun - 00:26:28 10° S 00:27:45 11° SSE 00:29:02 10° SSE daylight
02 Jun - 02:07:28 10° SSW 02:10:42 15° S 02:13:50 10° SE daylight
02 Jun - 03:51:28 10° SW 03:53:39 12° SSW 03:55:46 10° S daylight
